Regional Weather Roundup
Issued by NWS

Home | Current Version | Previous Version | Graphics & Text | Print | Product List | Glossary On
Versions: 1 2 3 4 5 6 7 8 9 10 11 12 13 14 15 16 17 18 19 20 21 22 23 24 25 26 27 28 29 30 31 32 33 34 35 36 37 38 39 40 41 42 43 44 45 46 47 48 49 50
000
ASUS43 KMKX 140710
RWRWI

WISCONSIN REGIONAL WEATHER ROUNDUP
NATIONAL WEATHER SERVICE MILWAUKEE/SULLIVAN WI
100 AM CST THU DEC 14 2017

NOTE: "FAIR" INDICATES FEW OR NO CLOUDS BELOW 12,000 FEET WITH NO
SIGNIFICANT WEATHER AND/OR OBSTRUCTIONS TO VISIBILITY.

WIZ001-002-006>008-014>016-023>028-140800-
NORTHWEST WISCONSIN

CITY           SKY/WX    TMP DP  RH WIND       PRES   REMARKS
SUPERIOR ARPT  CLEAR      5   3  90 CALM      29.97S
ASHLAND        CLOUDY     9   5  84 W5        29.95R WCI   1
HAYWARD        CLOUDY    18  13  80 CALM      29.92R
SIREN          CLOUDY    14  12  92 NW3       29.95S
CUMBERLAND     PTCLDY    10   9  92 NW6       29.93R WCI   1
RICE LAKE      CLOUDY    14  13  95 CALM      29.95R
CHETEK         CLOUDY    15  13  92 CALM      29.94R
LADYSMITH      CLOUDY     7   4  88 NW5       29.92R WCI  -2
EAU CLAIRE     CLOUDY     9   6  88 W3        29.95R
MENOMONIE      CLOUDY    13  11  91 CALM      29.96R FOG
NEW RICHMOND   CLOUDY     7   3  84 CALM      29.97R
OSCEOLA        CLOUDY    13  13 100 CALM      30.00R
$$

WIZ003>005-009-010-017-018-140800-
NORTH CENTRAL WISCONSIN

CITY           SKY/WX    TMP DP  RH WIND       PRES   REMARKS
MANITOWISH WTR FLURRIES  12  11  97 CALM      29.84R
ARBOR VITAE    CLOUDY    14  10  85 CALM      29.83S
WOODRUFF       CLOUDY    14  10  85 CALM      29.83S
RHINELANDER    PTCLDY    13   7  77 CALM      29.83S
EAGLE RIVER    CLOUDY    13   6  74 N10       29.82R WCI   0
LAND O LAKES   MOCLDY    12   8  82 CALM      29.83S
PHILLIPS       FLURRIES  10   9  94 NW3       29.87R
TOMAHAWK       CLOUDY    13   9  85 CALM      29.85R
MEDFORD        CLOUDY     6   3  88 CALM      29.86R
MERRILL        CLOUDY    12  10  90 CALM      29.87R
$$

WIZ029-030-035-036-043>047-140800-
CENTRAL WISCONSIN

CITY           SKY/WX    TMP DP  RH WIND       PRES   REMARKS
WAUSAU         CLOUDY    12   9  87 NW6       29.85S WCI   3
MOSINEE        CLOUDY     7   5  92 NW3       29.87S
MARSHFIELD     CLOUDY    10   7  87 NW6       29.87R WCI   0
STEVENS POINT  CLOUDY     2  -1  91 CALM      29.88S
WAUPACA        CLOUDY     9   6  86 NW3       29.89S
WAUTOMA        CLOUDY     1  -3  83 CALM      29.90S
WISC RAPIDS    PTCLDY     7   5  91 W3        29.91R
CAMP DOUGLAS   CLEAR      5   2  88 NW6       29.92R WCI  -6
$$

WIZ011>013-019>022-031-037>040-048>050-140800-
NORTHEAST WISCONSIN

CITY           SKY/WX    TMP DP  RH WIND       PRES   REMARKS
ANTIGO         FLURRIES  11   9  92 NW6       29.83R WCI   1
SHAWANO        CLOUDY    13   9  85 CALM      29.88R
OCONTO         CLOUDY    -2  -5  86 CALM      29.88R
STURGEON BAY   FLURRIES  18  13  80 NW16G23   29.86R WCI   3
GREEN BAY      CLOUDY     6   2  83 NW7       29.88R WCI  -6
MANITOWOC      CLEAR     10   6  84 NW8       29.88R WCI  -2
APPLETON       CLOUDY     9   5  85 NW8       29.86R WCI  -4
CLINTONVILLE   CLOUDY     9   7  92 W6        29.89R WCI  -1
OSHKOSH        CLOUDY    11   7  84 NW7       29.87S WCI   0
$$

WIZ032>034-041-042-053>061-140800-
SOUTHWEST WISCONSIN

CITY           SKY/WX    TMP DP  RH WIND       PRES   REMARKS
LA CROSSE      PTCLDY    13   9  84 N8        29.96R WCI   2
SPARTA         PTCLDY     6   4  91 CALM      29.95R
VIROQUA        PTCLDY    12  11  96 CALM      29.90R
BOSCOBEL       CLOUDY    20  14  77 NW3       29.95R
PRAIRIE DU CHI CLOUDY    19  12  73 CALM      29.96R
PLATTEVILLE    CLOUDY    22  16  77 N8        29.92R WCI  12
$$

WIZ056-057-062-063-064-067-068-140800-
SOUTH CENTRAL WISCONSIN

CITY           SKY/WX    TMP DP  RH WIND       PRES   REMARKS
REEDSBURG      CLEAR     15  11  81 NW3       29.91R
BARABOO/DELLS  CLEAR     14  10  85 CALM      29.90R
LONE ROCK      MOCLDY    19  12  74 CALM      29.94R
MINERAL POINT  MOCLDY    21  16  79 N6        29.90R WCI  14
MADISON        CLEAR     14   9  80 N6        29.90R WCI   5
MIDDLETON      CLEAR     17  12  80 N7        29.91R WCI   7
WATERTOWN      CLEAR     13   9  82 NW7       29.88R WCI   3
MONROE         PTCLDY    19  12  73 N14       29.88R WCI   6
JANESVILLE     CLEAR     19  10  68 N7        29.89R WCI  10
$$

WIZ051-052-058>065-066-070>072-140800-
SOUTHEAST WISCONSIN

CITY           SKY/WX    TMP DP  RH WIND       PRES   REMARKS
MILWAUKEE      PTCLDY    18  10  71 N10       29.85R WCI   6
WAUKESHA       CLEAR     12   9  85 N3        29.87R
MILWAUKEE/TIMM CLEAR     14   9  79 N12       29.86R WCI   0
RACINE         PTCLDY    19  11  70 NW12      29.86R WCI   7
BURLINGTON     CLEAR     16  12  84 N6        29.87R WCI   7
KENOSHA        CLEAR     19  11  70 NW13      29.85R WCI   6
FOND DU LAC    FLURRIES  10   4  76 NW8       29.88R WCI  -2
SHEBOYGAN      CLEAR     12   8  84 NW9       29.85R WCI   0
WEST BEND      CLEAR     12   9  85 N6        29.84S WCI   3
JUNEAU         CLEAR     10   6  82 N7        29.88R WCI   0
$$

LSZ147-162-140800-
LAKE SUPERIOR

STATION/POSITION TIME  TEMP    WIND        PRES    WAVE
                       AIR SEA DIR/SP/G            HT/PER
                 (UTC) (F)     (DEG/KT/KT) (MB)    (FT/S)
DEVILS ISLAND    0700   17     340/ 10/ 12 1015.0F
SAXON HARBOR     0640   22                 1012.9S
$$

LMZ867-665-643>646-140800-
LAKE MICHIGAN

STATION/POSITION TIME  TEMP    WIND        PRES    WAVE
                       AIR SEA DIR/SP/G            HT/PER
                 (UTC) (F)     (DEG/KT/KT) (MB)    (FT/S)
NORTHPORT PIER   0655   21     340/ 20/ 25 1010.5R
KEWAUNEE LAKESHO 0630   13     300/  5/  7 1010.4R
SHEBOYGAN LAKESH 0700   16     310/ 15/ 20 1012.0R
PORT WASHINGTON  0640   15     320/  7/ 13 1012.2R
MILWAUKEE LAKESH 0650   18     330/ 13/ 18   N/A
KENOSHA   LAKESH 0700   20     330/ 15/ 19 1011.2
$$

TC  - TEMPERATURE IN CELSIUS
VSB - VISIBILITY IN STATUTE MILES
WCI - WIND CHILL INDEX
HX  - HEAT INDEX





USA.gov is the U.S. government's official web portal to all federal, state and local government web resources and services.